Location: Arcones
(41.1182°N, 3.7238°W)
Time: 16:53:48
(UTC+00:00)

YAOGAN 1 - Pass Details

Date: 19 March 2026
Orbit: 604 x 606 km, 97.8° (Epoch: 18 April)

Event Time Altitude Azimuth Distance (km) Brightness Sun altitude
Rises 18:43:03 0° 168° (SSE) 2,848 5.8 -4.1°
Reaches altitude 10° 18:45:13 10° 169° (S) 1,949 5.0 -4.5°
Maximum altitude 18:49:27 82° 257° (WSW) 618 2.7 -5.3°
Drops below altitude 10° 18:53:44 10° 346° (NNW) 1,964 5.4 -6.1°
Sets 18:55:55 0° 347° (NNW) 2,872 6.2 -6.5°
